AISSAT 2 (40075 NORAD) Tracking and Keplerian Element Data

This shows tracking and keplerian element data for the satellite.

Feedback or suggestion? Click here.




ElementValue
Catalog40075
NameAISSAT 2
Epoch Orbit53673
Epoch Day160.22956879
Epoch Year2024
RAAN79.0088
Inclination98.3363
Eccentricity0.0006189
Argument of Perigee139.1366
Mean Anonmoly221.0314
Mean Motion14.86857028
Decay Rate4.172E-05
L11 40075U 14037G 24160.22956879 .00004172 00000+0 47393-3 0 9994
L22 40075 98.3363 79.0088 0006189 139.1366 221.0314 14.86857028536731



Live tracking and technical data element details for AISSAT 2 (NORAD 40075). AISSAT 2 can be tracked NOW for your location showing map with azimuth and elevation plus other details from your city location.







IsCatalogInMostPopularTable: catalog: 40075, numindb: 24973
Update: records affected: 1



GetName: 40075 AISSAT 2

Hit Count: updated at: Tue, 17 Sep 2024 12:57:14 GMT